SB KEPS @ AMSAT $ORB10168.O Orbital Elements 10168.OSCAR
HR AMSAT ORBITAL ELEMENTS FOR OSCAR SATELLITES FROM WA5QGD FORT WORTH,TX June 17, 2010 Send Subscribe/unsubscribe to KEPS at http://www.amsat.org/mailman/listinfo/keps BID: ORB10168.O TO ALL RADIO AMATEURS BT
Satellite: AO-07 Catalog number: 07530 Epoch time: 10168.60167851 Element set: 803 Inclination: 101.4003 deg RA of node: 184.4522 deg Eccentricity: 0.0011630 Arg of perigee: 274.6789 deg Mean anomaly: 085.2953 deg Mean motion: 12.53578647 rev/day Decay rate: -2.7e-07 rev/day^2 Epoch rev: 62850 Checksum: 294
Satellite: FO-29 Catalog number: 24278 Epoch time: 10167.95718020 Element set: 0339 Inclination: 098.5143 deg RA of node: 357.1211 deg Eccentricity: 0.0351236 Arg of perigee: 124.3796 deg Mean anomaly: 239.1086 deg Mean motion: 13.52951201 rev/day Decay rate: -4.2e-07 rev/day^2 Epoch rev: 68307 Checksum: 298
Satellite: SO-33 Catalog number: 25509 Epoch time: 10167.34992174 Element set: 735 Inclination: 031.4326 deg RA of node: 153.2551 deg Eccentricity: 0.0354512 Arg of perigee: 282.4854 deg Mean anomaly: 073.6337 deg Mean motion: 14.28308370 rev/day Decay rate: 6.9e-07 rev/day^2 Epoch rev: 60793 Checksum: 306
Satellite: RS-22 Catalog number: 27939 Epoch time: 10168.67088107 Element set: 282 Inclination: 097.8926 deg RA of node: 034.1366 deg Eccentricity: 0.0014650 Arg of perigee: 060.6151 deg Mean anomaly: 299.6507 deg Mean motion: 14.63426601 rev/day Decay rate: 1.04e-06 rev/day^2 Epoch rev: 35902 Checksum: 303
Satellite: VO-52 Catalog number: 28650 Epoch time: 10167.59303739 Element set: 0530 Inclination: 097.6918 deg RA of node: 221.0512 deg Eccentricity: 0.0025801 Arg of perigee: 279.2989 deg Mean anomaly: 080.5321 deg Mean motion: 14.81761514 rev/day Decay rate: 5.51e-06 rev/day^2 Epoch rev: 27660 Checksum: 304
Satellite: SO-67 Catalog number: 35870 Epoch time: 10168.71822197 Element set: 830 Inclination: 097.3315 deg RA of node: 217.8402 deg Eccentricity: 0.0004709 Arg of perigee: 092.1419 deg Mean anomaly: 055.7592 deg Mean motion: 15.20922096 rev/day Decay rate: 5.21e-06 rev/day^2 Epoch rev: 4153 Checksum: 298
Satellite: HO-68 Catalog number: 36122 Epoch time: 10168.62819210 Element set: 406 Inclination: 100.4684 deg RA of node: 229.0529 deg Eccentricity: 0.0007386 Arg of perigee: 338.6004 deg Mean anomaly: 021.4799 deg Mean motion: 13.16281014 rev/day Decay rate: -4.5e-07 rev/day^2 Epoch rev: 2427 Checksum: 278
/EX SB KEPS @ AMSAT $ORB10168.D Orbital Elements 10168.MICROS
HR AMSAT ORBITAL ELEMENTS FOR THE MICROSATS FROM WA5QGD FORT WORTH,TX June 17, 2010 Send Subscribe/unsubscribe to KEPS at http://www.amsat.org/mailman/listinfo/keps BID: ORB10168.D TO ALL RADIO AMATEURS BT
Satellite: UO-11 Catalog number: 14781 Epoch time: 10167.88707613 Element set: 0269 Inclination: 098.0550 deg RA of node: 219.6279 deg Eccentricity: 0.0008097 Arg of perigee: 236.4847 deg Mean anomaly: 123.5576 deg Mean motion: 14.79808274 rev/day Decay rate: -1.53e-06 rev/day^2 Epoch rev: 41176 Checksum: 334
Satellite: AO-16 Catalog number: 20439 Epoch time: 10167.56002936 Element set: 0923 Inclination: 098.3324 deg RA of node: 125.4908 deg Eccentricity: 0.0011085 Arg of perigee: 163.2265 deg Mean anomaly: 196.9275 deg Mean motion: 14.31863948 rev/day Decay rate: -1.1e-07 rev/day^2 Epoch rev: 06529 Checksum: 305
Satellite: LO-19 Catalog number: 20442 Epoch time: 10168.74561184 Element set: 833 Inclination: 098.2928 deg RA of node: 132.4287 deg Eccentricity: 0.0012325 Arg of perigee: 155.1495 deg Mean anomaly: 205.0285 deg Mean motion: 14.32095224 rev/day Decay rate: .00000000 rev/day^2 Epoch rev: 6563 Checksum: 273
Satellite: AO-27 Catalog number: 22825 Epoch time: 10168.78316372 Element set: 556 Inclination: 098.4852 deg RA of node: 116.7181 deg Eccentricity: 0.0007456 Arg of perigee: 267.9793 deg Mean anomaly: 092.0537 deg Mean motion: 14.29300161 rev/day Decay rate: 6.6e-07 rev/day^2 Epoch rev: 87213 Checksum: 320
Satellite: IO-26 Catalog number: 22826 Epoch time: 10167.79864064 Element set: 291 Inclination: 098.4798 deg RA of node: 116.3607 deg Eccentricity: 0.0007993 Arg of perigee: 266.5358 deg Mean anomaly: 093.4912 deg Mean motion: 14.29555789 rev/day Decay rate: -1.0e-07 rev/day^2 Epoch rev: 87210 Checksum: 345
Satellite: GO-32 Catalog number: 25397 Epoch time: 10167.67908821 Element set: 0212 Inclination: 098.3113 deg RA of node: 175.1572 deg Eccentricity: 0.0000199 Arg of perigee: 230.7714 deg Mean anomaly: 129.3441 deg Mean motion: 14.23179792 rev/day Decay rate: 2.0e-07 rev/day^2 Epoch rev: 61997 Checksum: 302
Satellite: NO-44 Catalog number: 26931 Epoch time: 10167.64439295 Element set: 484 Inclination: 067.0496 deg RA of node: 205.3724 deg Eccentricity: 0.0005607 Arg of perigee: 262.3574 deg Mean anomaly: 097.6903 deg Mean motion: 14.29599254 rev/day Decay rate: -2.09e-06 rev/day^2 Epoch rev: 45467 Checksum: 336
Satellite: SO-50 Catalog number: 27607 Epoch time: 10168.68806310 Element set: 201 Inclination: 064.5586 deg RA of node: 354.9961 deg Eccentricity: 0.0034828 Arg of perigee: 076.3888 deg Mean anomaly: 284.1080 deg Mean motion: 14.71548005 rev/day Decay rate: 3.2e-07 rev/day^2 Epoch rev: 40245 Checksum: 303
Satellite: CO-55 Catalog number: 27844 Epoch time: 10167.60212511 Element set: 0869 Inclination: 098.7088 deg RA of node: 176.5841 deg Eccentricity: 0.0009878 Arg of perigee: 166.8074 deg Mean anomaly: 193.3363 deg Mean motion: 14.20712924 rev/day Decay rate: 4.7e-07 rev/day^2 Epoch rev: 36100 Checksum: 319
Satellite: CO-57 Catalog number: 27848 Epoch time: 10168.54731237 Element set: 820 Inclination: 098.7131 deg RA of node: 176.6098 deg Eccentricity: 0.0009449 Arg of perigee: 169.0529 deg Mean anomaly: 191.0854 deg Mean motion: 14.20505114 rev/day Decay rate: 5.1e-07 rev/day^2 Epoch rev: 36109 Checksum: 310
Satellite: AO-51 Catalog number: 28375 Epoch time: 10168.49620234 Element set: 702 Inclination: 098.0619 deg RA of node: 161.9745 deg Eccentricity: 0.0084850 Arg of perigee: 095.8260 deg Mean anomaly: 265.2613 deg Mean motion: 14.40688148 rev/day Decay rate: 2.2e-07 rev/day^2 Epoch rev: 31355 Checksum: 308
Satellite: GENESAT1 Catalog number: 29655 Epoch time: 10168.70328519 Element set: 111 Inclination: 040.0195 deg RA of node: 025.3926 deg Eccentricity: 0.0010217 Arg of perigee: 319.2290 deg Mean anomaly: 040.8531 deg Mean motion: 15.94354272 rev/day Decay rate: 1.47748e-03 rev/day^2 Epoch rev: 20007 Checksum: 274
Satellite: CP3 Catalog number: 31129 Epoch time: 10168.76678814 Element set: 604 Inclination: 097.9369 deg RA of node: 208.3087 deg Eccentricity: 0.0100765 Arg of perigee: 231.3266 deg Mean anomaly: 127.8835 deg Mean motion: 14.52267545 rev/day Decay rate: 1.72e-06 rev/day^2 Epoch rev: 16794 Checksum: 326
Satellite: CO-65 Catalog number: 32785 Epoch time: 10168.63732688 Element set: 709 Inclination: 097.8956 deg RA of node: 233.5582 deg Eccentricity: 0.0013791 Arg of perigee: 285.1412 deg Mean anomaly: 074.8263 deg Mean motion: 14.81667474 rev/day Decay rate: 3.17e-06 rev/day^2 Epoch rev: 11555 Checksum: 343
Satellite: KKS-1 Catalog number: 33493 Epoch time: 10168.86239283 Element set: 584 Inclination: 098.0865 deg RA of node: 288.3599 deg Eccentricity: 0.0020963 Arg of perigee: 136.0193 deg Mean anomaly: 224.2692 deg Mean motion: 14.81010496 rev/day Decay rate: 3.30e-06 rev/day^2 Epoch rev: 7558 Checksum: 322
Satellite: SOHLA-1 Catalog number: 33496 Epoch time: 10167.88852577 Element set: 0131 Inclination: 098.0600 deg RA of node: 276.9671 deg Eccentricity: 0.0006241 Arg of perigee: 195.2438 deg Mean anomaly: 164.8584 deg Mean motion: 14.69498489 rev/day Decay rate: 1.11e-06 rev/day^2 Epoch rev: 07483 Checksum: 335
/EX SB KEPS @ AMSAT $ORB10168.W Orbital Elements 10168.WEATHER
HR AMSAT ORBITAL ELEMENTS FOR WEATHER SATELLITES FROM WA5QGD FORT WORTH,TX June 17, 2010 Send Subscribe/unsubscribe to KEPS at http://www.amsat.org/mailman/listinfo/keps BID: ORB10168.W TO ALL RADIO AMATEURS BT
Satellite: NOAA-10 Catalog number: 16969 Epoch time: 10168.15298206 Element set: 101 Inclination: 098.6548 deg RA of node: 197.1210 deg Eccentricity: 0.0011731 Arg of perigee: 208.6168 deg Mean anomaly: 151.4369 deg Mean motion: 14.27419038 rev/day Decay rate: -2.7e-07 rev/day^2 Epoch rev: 23557 Checksum: 299
Satellite: NOAA-11 Catalog number: 19531 Epoch time: 10168.31103221 Element set: 114 Inclination: 098.7696 deg RA of node: 257.3331 deg Eccentricity: 0.0011792 Arg of perigee: 143.9157 deg Mean anomaly: 216.2833 deg Mean motion: 14.14927687 rev/day Decay rate: 6.0e-08 rev/day^2 Epoch rev: 12115 Checksum: 277
Satellite: NOAA-12 Catalog number: 21263 Epoch time: 10168.42127201 Element set: 600 Inclination: 098.7638 deg RA of node: 181.5818 deg Eccentricity: 0.0012634 Arg of perigee: 161.5395 deg Mean anomaly: 198.6257 deg Mean motion: 14.25639385 rev/day Decay rate: 1.84e-06 rev/day^2 Epoch rev: 99243 Checksum: 311
Satellite: MET-3/5 Catalog number: 21655 Epoch time: 10168.86392338 Element set: 839 Inclination: 082.5586 deg RA of node: 308.1555 deg Eccentricity: 0.0013293 Arg of perigee: 353.8113 deg Mean anomaly: 006.2790 deg Mean motion: 13.17024192 rev/day Decay rate: 5.1e-07 rev/day^2 Epoch rev: 90576 Checksum: 306
Satellite: MET-2/21 Catalog number: 22782 Epoch time: 10168.72545451 Element set: 805 Inclination: 082.5484 deg RA of node: 252.0135 deg Eccentricity: 0.0023518 Arg of perigee: 044.3628 deg Mean anomaly: 315.9420 deg Mean motion: 13.83646506 rev/day Decay rate: 5.3e-07 rev/day^2 Epoch rev: 84815 Checksum: 294
Satellite: OKEAN-4 Catalog number: 23317 Epoch time: 10168.72651907 Element set: 261 Inclination: 082.5404 deg RA of node: 353.3553 deg Eccentricity: 0.0020487 Arg of perigee: 238.3882 deg Mean anomaly: 121.5317 deg Mean motion: 14.82825736 rev/day Decay rate: 5.6e-07 rev/day^2 Epoch rev: 84653 Checksum: 301
